"Sample Date","Sample Time","Sensor Name","Sample Value","Units","Flow Rate","Sample Interval","Sample Volume","Laser Status","Number Channels","Micron Size 0","Counts/Channel 0","Micron Size 1","Counts/Channel 1","Micron Size 2","Counts/Channel 2","Micron Size 3","Counts/Channel 3","Micron Size 4","Counts/Channel 4","Micron Size 5","Counts/Channel 5","Micron Size 6","Counts/Channel 6","Micron Size 7","Counts/Channel 7","Micron Size 8","Counts/Channel 8","Micron Size 9","Counts/Channel 9","Micron Size 10","Counts/Channel 10","Micron Size 11","Counts/Channel 11","Micron Size 12","Counts/Channel 12","Micron Size 13","Counts/Channel 13","Micron Size 14","Counts/Channel 14","Micron Size 15","Counts/Channel 15","Micron Size 16","Counts/Channel 16","Micron Size 17","Counts/Channel 17","Micron Size 18","Counts/Channel 18","Micron Size 19","Counts/Channel 19","Micron Size 20","Counts/Channel 20","Micron Size 21","Counts/Channel 21","Micron Size 22","Counts/Channel 22","Micron Size 23","Counts/Channel 23","Micron Size 24","Counts/Channel 24","Micron Size 25","Counts/Channel 25","Micron Size 26","Counts/Channel 26","Micron Size 27","Counts/Channel 27","Micron Size 28","Counts/Channel 28","Micron Size 29","Counts/Channel 29","Micron Size 30","Counts/Channel 30","Micron Size 31","Counts/Channel 31"
"07/10/06","02:00:02","AMMA06",31684.000,"cc",28339.893,6.00,2833.990,1,6,0.100,17751.000,0.200,11995.000,0.300,1781.000,0.500,106.000,1.000,51.000,5.000,0
"07/10/06","02:00:08","AMMA06",31827.000,"cc",28281.123,6.00,2828.113,1,6,0.100,17980.000,0.200,11925.000,0.300,1756.000,0.500,120.000,1.000,46.000,5.000,0
"07/10/06","02:00:14","AMMA06",31436.000,"cc",28298.025,6.00,2829.803,1,6,0.100,17714.000,0.200,11859.000,0.300,1683.000,0.500,114.000,1.000,66.000,5.000,0
"07/10/06","02:00:20","AMMA06",31497.000,"cc",28360.381,6.00,2836.038,1,6,0.100,17800.000,0.200,11821.000,0.300,1673.000,0.500,150.000,1.000,53.000,5.000,0
"07/10/06","02:00:26","AMMA06",31605.000,"cc",28342.471,6.00,2834.247,1,6,0.100,17678.000,0.200,11975.000,0.300,1771.000,0.500,134.000,1.000,47.000,5.000,0
"07/10/06","02:00:32","AMMA06",31786.000,"cc",28307.613,6.00,2830.762,1,6,0.100,17963.000,0.200,11806.000,0.300,1824.000,0.500,143.000,1.000,50.000,5.000,0
"07/10/06","02:00:38","AMMA06",31109.000,"cc",28312.338,6.00,2831.234,1,6,0.100,17396.000,0.200,11811.000,0.300,1731.000,0.500,116.000,1.000,55.000,5.000,0
"07/10/06","02:00:44","AMMA06",31515.000,"cc",28284.473,6.00,2828.448,1,6,0.100,17646.000,0.200,11927.000,0.300,1759.000,0.500,134.000,1.000,49.000,5.000,0
"07/10/06","02:00:50","AMMA06",31630.000,"cc",28360.732,6.00,2836.074,1,6,0.100,17732.000,0.200,11927.000,0.300,1797.000,0.500,118.000,1.000,56.000,5.000,0
"07/10/06","02:00:56","AMMA06",31891.000,"cc",28278.842,6.00,2827.884,1,6,0.100,17868.000,0.200,12104.000,0.300,1734.000,0.500,134.000,1.000,51.000,5.000,0
"07/10/06","02:01:02","AMMA06",31582.000,"cc",28318.467,6.00,2831.847,1,6,0.100,17753.000,0.200,11909.000,0.300,1743.000,0.500,123.000,1.000,54.000,5.000,0
"07/10/06","02:01:08","AMMA06",31559.000,"cc",28311.900,6.00,2831.190,1,6,0.100,17827.000,0.200,11819.000,0.300,1743.000,0.500,124.000,1.000,46.000,5.000,0
"07/10/06","02:01:14","AMMA06",31894.000,"cc",28317.012,6.00,2831.701,1,6,0.100,17880.000,0.200,12060.000,0.300,1787.000,0.500,128.000,1.000,39.000,5.000,0
"07/10/06","02:01:20","AMMA06",31770.000,"cc",28359.688,6.00,2835.969,1,6,0.100,17813.000,0.200,12008.000,0.300,1772.000,0.500,135.000,1.000,42.000,5.000,0
"07/10/06","02:01:26","AMMA06",31780.000,"cc",28298.797,6.00,2829.880,1,6,0.100,17967.000,0.200,11893.000,0.300,1727.000,0.500,133.000,1.000,60.000,5.000,0
"07/10/06","02:01:32","AMMA06",31893.000,"cc",28330.482,6.00,2833.048,1,6,0.100,17859.000,0.200,12047.000,0.300,1767.000,0.500,157.000,1.000,63.000,5.000,0
"07/10/06","02:01:38","AMMA06",31632.000,"cc",28279.773,6.00,2827.978,1,6,0.100,17855.000,0.200,11787.000,0.300,1791.000,0.500,141.000,1.000,58.000,5.000,0
"07/10/06","02:01:44","AMMA06",31361.000,"cc",28335.482,6.00,2833.548,1,6,0.100,17592.000,0.200,11805.000,0.300,1788.000,0.500,137.000,1.000,39.000,5.000,0
"07/10/06","02:01:50","AMMA06",31584.000,"cc",28333.629,6.00,2833.363,1,6,0.100,17864.000,0.200,11796.000,0.300,1759.000,0.500,108.000,1.000,57.000,5.000,0
"07/10/06","02:01:56","AMMA06",31420.000,"cc",28385.240,6.00,2838.524,1,6,0.100,17747.000,0.200,11777.000,0.300,1733.000,0.500,124.000,1.000,39.000,5.000,0
"07/10/06","02:02:02","AMMA06",31765.000,"cc",28282.117,6.00,2828.212,1,6,0.100,17836.000,0.200,11992.000,0.300,1768.000,0.500,116.000,1.000,53.000,5.000,0
"07/10/06","02:02:08","AMMA06",31510.000,"cc",28286.695,6.00,2828.670,1,6,0.100,17807.000,0.200,11841.000,0.300,1687.000,0.500,119.000,1.000,56.000,5.000,0
"07/10/06","02:02:14","AMMA06",31341.000,"cc",28304.647,6.00,2830.465,1,6,0.100,17671.000,0.200,11726.000,0.300,1751.000,0.500,132.000,1.000,61.000,5.000,0
"07/10/06","02:02:20","AMMA06",31579.000,"cc",28288.436,6.00,2828.844,1,6,0.100,17866.000,0.200,11876.000,0.300,1653.000,0.500,126.000,1.000,58.000,5.000,0
"07/10/06","02:02:26","AMMA06",31349.000,"cc",28347.826,6.00,2834.783,1,6,0.100,17851.000,0.200,11709.000,0.300,1635.000,0.500,114.000,1.000,40.000,5.000,0
"07/10/06","02:02:32","AMMA06",31272.000,"cc",28322.295,6.00,2832.230,1,6,0.100,17633.000,0.200,11718.000,0.300,1746.000,0.500,120.000,1.000,55.000,5.000,0
"07/10/06","02:02:38","AMMA06",32144.000,"cc",28354.438,6.00,2835.444,1,6,0.100,18131.000,0.200,11922.000,0.300,1808.000,0.500,210.000,1.000,73.000,5.000,0
"07/10/06","02:02:44","AMMA06",31344.000,"cc",28336.275,6.00,2833.628,1,6,0.100,17549.000,0.200,11880.000,0.300,1722.000,0.500,141.000,1.000,52.000,5.000,0
"07/10/06","02:02:50","AMMA06",31573.000,"cc",28342.895,6.00,2834.290,1,6,0.100,17608.000,0.200,11947.000,0.300,1780.000,0.500,178.000,1.000,60.000,5.000,0
"07/10/06","02:02:56","AMMA06",31300.000,"cc",28289.848,6.00,2828.985,1,6,0.100,17941.000,0.200,11519.000,0.300,1663.000,0.500,125.000,1.000,52.000,5.000,0
"07/10/06","02:03:02","AMMA06",31092.000,"cc",28265.684,6.00,2826.569,1,6,0.100,17594.000,0.200,11660.000,0.300,1665.000,0.500,121.000,1.000,52.000,5.000,0
"07/10/06","02:03:08","AMMA06",31566.000,"cc",28263.510,6.00,2826.351,1,6,0.100,17970.000,0.200,11722.000,0.300,1704.000,0.500,117.000,1.000,53.000,5.000,0
"07/10/06","02:03:14","AMMA06",31769.000,"cc",28358.648,6.00,2835.865,1,6,0.100,17976.000,0.200,11857.000,0.300,1787.000,0.500,93.000,1.000,56.000,5.000,0
"07/10/06","02:03:20","AMMA06",31731.000,"cc",28375.721,6.00,2837.572,1,6,0.100,17926.000,0.200,11894.000,0.300,1751.000,0.500,123.000,1.000,37.000,5.000,0
"07/10/06","02:03:26","AMMA06",31147.000,"cc",28345.416,6.00,2834.542,1,6,0.100,17418.000,0.200,11824.000,0.300,1732.000,0.500,118.000,1.000,55.000,5.000,0
"07/10/06","02:03:32","AMMA06",31274.000,"cc",28233.250,6.00,2823.325,1,6,0.100,17676.000,0.200,11733.000,0.300,1687.000,0.500,115.000,1.000,63.000,5.000,0
"07/10/06","02:03:38","AMMA06",31442.000,"cc",28345.272,6.00,2834.527,1,6,0.100,17686.000,0.200,11902.000,0.300,1685.000,0.500,121.000,1.000,48.000,5.000,0
"07/10/06","02:03:44","AMMA06",31377.000,"cc",28338.758,6.00,2833.876,1,6,0.100,17775.000,0.200,11640.000,0.300,1792.000,0.500,132.000,1.000,38.000,5.000,0
"07/10/06","02:03:50","AMMA06",31439.000,"cc",28285.156,6.00,2828.516,1,6,0.100,17757.000,0.200,11781.000,0.300,1751.000,0.500,107.000,1.000,43.000,5.000,0
"07/10/06","02:03:56","AMMA06",31596.000,"cc",28314.258,6.00,2831.426,1,6,0.100,18003.000,0.200,11701.000,0.300,1743.000,0.500,99.000,1.000,50.000,5.000,0
"07/10/06","02:04:02","AMMA06",31446.000,"cc",28289.008,6.00,2828.901,1,6,0.100,17710.000,0.200,11893.000,0.300,1673.000,0.500,122.000,1.000,48.000,5.000,0
"07/10/06","02:04:08","AMMA06",31516.000,"cc",28352.945,6.00,2835.295,1,6,0.100,17883.000,0.200,11760.000,0.300,1680.000,0.500,147.000,1.000,46.000,5.000,0
"07/10/06","02:04:14","AMMA06",31318.000,"cc",28360.924,6.00,2836.093,1,6,0.100,17751.000,0.200,11693.000,0.300,1690.000,0.500,132.000,1.000,52.000,5.000,0
"07/10/06","02:04:20","AMMA06",31198.000,"cc",28289.867,6.00,2828.987,1,6,0.100,17551.000,0.200,11838.000,0.300,1633.000,0.500,126.000,1.000,50.000,5.000,0
"07/10/06","02:04:26","AMMA06",31676.000,"cc",28303.346,6.00,2830.335,1,6,0.100,17743.000,0.200,12021.000,0.300,1738.000,0.500,123.000,1.000,51.000,5.000,0
"07/10/06","02:04:32","AMMA06",31601.000,"cc",28305.961,6.00,2830.596,1,6,0.100,17757.000,0.200,11905.000,0.300,1744.000,0.500,140.000,1.000,55.000,5.000,0
"07/10/06","02:04:38","AMMA06",31658.000,"cc",28373.129,6.00,2837.313,1,6,0.100,17695.000,0.200,11939.000,0.300,1837.000,0.500,136.000,1.000,51.000,5.000,0
"07/10/06","02:04:44","AMMA06",31384.000,"cc",28336.334,6.00,2833.634,1,6,0.100,17470.000,0.200,12016.000,0.300,1733.000,0.500,128.000,1.000,37.000,5.000,0
"07/10/06","02:04:50","AMMA06",31638.000,"cc",28265.365,6.00,2826.537,1,6,0.100,17518.000,0.200,12089.000,0.300,1847.000,0.500,135.000,1.000,49.000,5.000,0
"07/10/06","02:04:56","AMMA06",31463.000,"cc",28333.240,6.00,2833.324,1,6,0.100,17543.000,0.200,11984.000,0.300,1742.000,0.500,157.000,1.000,37.000,5.000,0
"07/10/06","02:05:02","AMMA06",31534.000,"cc",28321.859,6.00,2832.186,1,6,0.100,17488.000,0.200,12046.000,0.300,1835.000,0.500,125.000,1.000,40.000,5.000,0
"07/10/06","02:05:08","AMMA06",31555.000,"cc",28264.096,6.00,2826.410,1,6,0.100,17532.000,0.200,12085.000,0.300,1758.000,0.500,135.000,1.000,45.000,5.000,0
"07/10/06","02:05:14","AMMA06",31458.000,"cc",28327.617,6.00,2832.762,1,6,0.100,17460.000,0.200,12037.000,0.300,1803.000,0.500,119.000,1.000,39.000,5.000,0
"07/10/06","02:05:20","AMMA06",31472.000,"cc",28364.945,6.00,2836.495,1,6,0.100,17455.000,0.200,11898.000,0.300,1951.000,0.500,127.000,1.000,41.000,5.000,0
"07/10/06","02:05:26","AMMA06",32664.000,"cc",28288.320,6.00,2828.832,1,6,0.100,17924.000,0.200,12225.000,0.300,2106.000,0.500,294.000,1.000,115.000,5.000,0
"07/10/06","02:05:32","AMMA06",32163.000,"cc",28321.758,6.00,2832.176,1,6,0.100,17681.000,0.200,12322.000,0.300,1884.000,0.500,200.000,1.000,76.000,5.000,0
"07/10/06","02:05:38","AMMA06",31727.000,"cc",28307.906,6.00,2830.791,1,6,0.100,17662.000,0.200,12028.000,0.300,1829.000,0.500,163.000,1.000,45.000,5.000,0
"07/10/06","02:05:44","AMMA06",31768.000,"cc",28304.773,6.00,2830.478,1,6,0.100,17553.000,0.200,12150.000,0.300,1879.000,0.500,129.000,1.000,57.000,5.000,0
"07/10/06","02:05:50","AMMA06",31860.000,"cc",28327.750,6.00,2832.775,1,6,0.100,17656.000,0.200,12158.000,0.300,1855.000,0.500,141.000,1.000,50.000,5.000,0
"07/10/06","02:05:56","AMMA06",31330.000,"cc",28362.838,6.00,2836.284,1,6,0.100,17150.000,0.200,12147.000,0.300,1853.000,0.500,123.000,1.000,57.000,5.000,0
"07/10/06","02:06:02","AMMA06",31653.000,"cc",28336.357,6.00,2833.636,1,6,0.100,17411.000,0.200,12139.000,0.300,1940.000,0.500,122.000,1.000,41.000,5.000,0
"07/10/06","02:06:08","AMMA06",31674.000,"cc",28291.766,6.00,2829.177,1,6,0.100,17295.000,0.200,12358.000,0.300,1841.000,0.500,128.000,1.000,52.000,5.000,0
"07/10/06","02:06:14","AMMA06",31557.000,"cc",28284.422,6.00,2828.442,1,6,0.100,17557.000,0.200,11987.000,0.300,1820.000,0.500,143.000,1.000,50.000,5.000,0
"07/10/06","02:06:20","AMMA06",31671.000,"cc",28367.301,6.00,2836.730,1,6,0.100,17499.000,0.200,12208.000,0.300,1793.000,0.500,126.000,1.000,45.000,5.000,0
"07/10/06","02:06:26","AMMA06",31406.000,"cc",28311.266,6.00,2831.127,1,6,0.100,17287.000,0.200,12057.000,0.300,1878.000,0.500,130.000,1.000,54.000,5.000,0
"07/10/06","02:06:32","AMMA06",31642.000,"cc",28250.479,6.00,2825.048,1,6,0.100,17618.000,0.200,12011.000,0.300,1824.000,0.500,137.000,1.000,52.000,5.000,0
"07/10/06","02:06:38","AMMA06",31391.000,"cc",28329.910,6.00,2832.991,1,6,0.100,17550.000,0.200,11853.000,0.300,1817.000,0.500,126.000,1.000,45.000,5.000,0
"07/10/06","02:06:44","AMMA06",31681.000,"cc",28345.736,6.00,2834.574,1,6,0.100,17656.000,0.200,12030.000,0.300,1847.000,0.500,106.000,1.000,42.000,5.000,0
"07/10/06","02:06:50","AMMA06",31545.000,"cc",28314.525,6.00,2831.453,1,6,0.100,17538.000,0.200,12057.000,0.300,1795.000,0.500,116.000,1.000,39.000,5.000,0
"07/10/06","02:06:56","AMMA06",31418.000,"cc",28261.947,6.00,2826.195,1,6,0.100,17407.000,0.200,12048.000,0.300,1795.000,0.500,117.000,1.000,51.000,5.000,0
"07/10/06","02:07:02","AMMA06",31380.000,"cc",28339.522,6.00,2833.952,1,6,0.100,17509.000,0.200,11917.000,0.300,1782.000,0.500,126.000,1.000,46.000,5.000,0
"07/10/06","02:07:08","AMMA06",31406.000,"cc",28353.170,6.00,2835.317,1,6,0.100,17509.000,0.200,11959.000,0.300,1793.000,0.500,111.000,1.000,34.000,5.000,0
"07/10/06","02:07:14","AMMA06",31714.000,"cc",28311.158,6.00,2831.116,1,6,0.100,17591.000,0.200,12050.000,0.300,1844.000,0.500,168.000,1.000,61.000,5.000,0
"07/10/06","02:07:20","AMMA06",31371.000,"cc",28271.412,6.00,2827.141,1,6,0.100,17807.000,0.200,11578.000,0.300,1814.000,0.500,119.000,1.000,53.000,5.000,0
"07/10/06","02:07:26","AMMA06",31689.000,"cc",28328.529,6.00,2832.853,1,6,0.100,17749.000,0.200,11803.000,0.300,1882.000,0.500,201.000,1.000,54.000,5.000,0
"07/10/06","02:07:32","AMMA06",31126.000,"cc",28305.791,6.00,2830.579,1,6,0.100,17463.000,0.200,11640.000,0.300,1825.000,0.500,130.000,1.000,68.000,5.000,0
"07/10/06","02:07:38","AMMA06",31459.000,"cc",28312.606,6.00,2831.261,1,6,0.100,17814.000,0.200,11768.000,0.300,1708.000,0.500,125.000,1.000,44.000,5.000,0
"07/10/06","02:07:44","AMMA06",31258.000,"cc",28333.656,6.00,2833.366,1,6,0.100,17691.000,0.200,11676.000,0.300,1722.000,0.500,128.000,1.000,41.000,5.000,0
"07/10/06","02:07:50","AMMA06",30999.000,"cc",28318.846,6.00,2831.885,1,6,0.100,17500.000,0.200,11576.000,0.300,1752.000,0.500,133.000,1.000,38.000,5.000,0
"07/10/06","02:07:56","AMMA06",31447.000,"cc",28367.662,6.00,2836.766,1,6,0.100,17761.000,0.200,11835.000,0.300,1711.000,0.500,108.000,1.000,32.000,5.000,0
"07/10/06","02:08:02","AMMA06",31788.000,"cc",28278.250,6.00,2827.825,1,6,0.100,17952.000,0.200,11887.000,0.300,1725.000,0.500,162.000,1.000,62.000,5.000,0
"07/10/06","02:08:08","AMMA06",31349.000,"cc",28313.422,6.00,2831.342,1,6,0.100,17720.000,0.200,11708.000,0.300,1753.000,0.500,120.000,1.000,48.000,5.000,0
"07/10/06","02:08:14","AMMA06",31508.000,"cc",28340.385,6.00,2834.039,1,6,0.100,17756.000,0.200,11792.000,0.300,1783.000,0.500,129.000,1.000,48.000,5.000,0
"07/10/06","02:08:20","AMMA06",31192.000,"cc",28344.490,6.00,2834.449,1,6,0.100,17678.000,0.200,11645.000,0.300,1695.000,0.500,122.000,1.000,52.000,5.000,0
"07/10/06","02:08:26","AMMA06",31338.000,"cc",28305.141,6.00,2830.514,1,6,0.100,17736.000,0.200,11741.000,0.300,1716.000,0.500,113.000,1.000,32.000,5.000,0
"07/10/06","02:08:32","AMMA06",31198.000,"cc",28338.758,6.00,2833.876,1,6,0.100,17706.000,0.200,11651.000,0.300,1674.000,0.500,115.000,1.000,52.000,5.000,0
"07/10/06","02:08:38","AMMA06",31265.000,"cc",28215.701,6.00,2821.570,1,6,0.100,17601.000,0.200,11714.000,0.300,1736.000,0.500,142.000,1.000,72.000,5.000,0
"07/10/06","02:08:44","AMMA06",31307.000,"cc",28278.490,6.00,2827.849,1,6,0.100,17614.000,0.200,11790.000,0.300,1736.000,0.500,103.000,1.000,64.000,5.000,0
"07/10/06","02:08:50","AMMA06",31177.000,"cc",28380.365,6.00,2838.037,1,6,0.100,17541.000,0.200,11725.000,0.300,1727.000,0.500,140.000,1.000,44.000,5.000,0
"07/10/06","02:08:56","AMMA06",30734.000,"cc",28304.688,6.00,2830.469,1,6,0.100,17367.000,0.200,11486.000,0.300,1713.000,0.500,129.000,1.000,39.000,5.000,0
"07/10/06","02:09:02","AMMA06",31251.000,"cc",28312.584,6.00,2831.259,1,6,0.100,17512.000,0.200,11743.000,0.300,1818.000,0.500,126.000,1.000,52.000,5.000,0
"07/10/06","02:09:08","AMMA06",30843.000,"cc",28336.666,6.00,2833.667,1,6,0.100,17423.000,0.200,11527.000,0.300,1757.000,0.500,101.000,1.000,35.000,5.000,0
"07/10/06","02:09:14","AMMA06",31084.000,"cc",28330.072,6.00,2833.007,1,6,0.100,17369.000,0.200,11775.000,0.300,1754.000,0.500,136.000,1.000,50.000,5.000,0
"07/10/06","02:09:20","AMMA06",30867.000,"cc",28323.242,6.00,2832.325,1,6,0.100,17337.000,0.200,11609.000,0.300,1769.000,0.500,101.000,1.000,51.000,5.000,0
"07/10/06","02:09:26","AMMA06",31223.000,"cc",28292.856,6.00,2829.286,1,6,0.100,17547.000,0.200,11782.000,0.300,1742.000,0.500,110.000,1.000,42.000,5.000,0
"07/10/06","02:09:32","AMMA06",30866.000,"cc",28346.315,6.00,2834.632,1,6,0.100,17408.000,0.200,11587.000,0.300,1695.000,0.500,128.000,1.000,48.000,5.000,0
"07/10/06","02:09:38","AMMA06",31028.000,"cc",28305.504,6.00,2830.551,1,6,0.100,17529.000,0.200,11550.000,0.300,1774.000,0.500,127.000,1.000,48.000,5.000,0
"07/10/06","02:09:44","AMMA06",31369.000,"cc",28332.059,6.00,2833.206,1,6,0.100,17706.000,0.200,11758.000,0.300,1749.000,0.500,115.000,1.000,41.000,5.000,0
"07/10/06","02:09:50","AMMA06",31039.000,"cc",28340.600,6.00,2834.060,1,6,0.100,17659.000,0.200,11564.000,0.300,1677.000,0.500,105.000,1.000,34.000,5.000,0
"07/10/06","02:09:56","AMMA06",31259.000,"cc",28253.018,6.00,2825.302,1,6,0.100,17661.000,0.200,11795.000,0.300,1660.000,0.500,102.000,1.000,40.000,5.000,1.000
"07/10/06","02:10:02","AMMA06",31291.000,"cc",28319.586,6.00,2831.959,1,6,0.100,17450.000,0.200,11882.000,0.300,1779.000,0.500,132.000,1.000,48.000,5.000,0
"07/10/06","02:10:08","AMMA06",30793.000,"cc",28327.500,6.00,2832.750,1,6,0.100,17320.000,0.200,11609.000,0.300,1703.000,0.500,113.000,1.000,48.000,5.000,0
"07/10/06","02:10:14","AMMA06",31375.000,"cc",28362.387,6.00,2836.239,1,6,0.100,17564.000,0.200,11837.000,0.300,1793.000,0.500,134.000,1.000,47.000,5.000,0
"07/10/06","02:10:20","AMMA06",31295.000,"cc",28259.693,6.00,2825.970,1,6,0.100,17588.000,0.200,11828.000,0.300,1722.000,0.500,104.000,1.000,53.000,5.000,0
"07/10/06","02:10:26","AMMA06",30814.000,"cc",28353.932,6.00,2835.393,1,6,0.100,17493.000,0.200,11422.000,0.300,1731.000,0.500,121.000,1.000,47.000,5.000,0
"07/10/06","02:10:32","AMMA06",31247.000,"cc",28309.881,6.00,2830.988,1,6,0.100,17690.000,0.200,11621.000,0.300,1772.000,0.500,119.000,1.000,45.000,5.000,0
"07/10/06","02:10:38","AMMA06",31407.000,"cc",28270.525,6.00,2827.053,1,6,0.100,17810.000,0.200,11767.000,0.300,1684.000,0.500,112.000,1.000,34.000,5.000,0
"07/10/06","02:10:44","AMMA06",31032.000,"cc",28339.273,6.00,2833.928,1,6,0.100,17347.000,0.200,11758.000,0.300,1737.000,0.500,137.000,1.000,53.000,5.000,0
"07/10/06","02:10:50","AMMA06",30958.000,"cc",28337.461,6.00,2833.746,1,6,0.100,17352.000,0.200,11746.000,0.300,1673.000,0.500,141.000,1.000,46.000,5.000,0
"07/10/06","02:10:56","AMMA06",31104.000,"cc",28291.723,6.00,2829.172,1,6,0.100,17555.000,0.200,11677.000,0.300,1708.000,0.500,107.000,1.000,57.000,5.000,0
"07/10/06","02:11:02","AMMA06",31168.000,"cc",28400.332,6.00,2840.033,1,6,0.100,17595.000,0.200,11606.000,0.300,1779.000,0.500,136.000,1.000,52.000,5.000,0
"07/10/06","02:11:08","AMMA06",30753.000,"cc",28346.523,6.00,2834.653,1,6,0.100,17139.000,0.200,11800.000,0.300,1669.000,0.500,103.000,1.000,42.000,5.000,0
"07/10/06","02:11:14","AMMA06",30578.000,"cc",28288.754,6.00,2828.876,1,6,0.100,17194.000,0.200,11580.000,0.300,1662.000,0.500,109.000,1.000,33.000,5.000,0
"07/10/06","02:11:20","AMMA06",30979.000,"cc",28261.570,6.00,2826.157,1,6,0.100,17325.000,0.200,11756.000,0.300,1723.000,0.500,126.000,1.000,49.000,5.000,0
"07/10/06","02:11:26","AMMA06",30800.000,"cc",28308.785,6.00,2830.879,1,6,0.100,17299.000,0.200,11635.000,0.300,1713.000,0.500,111.000,1.000,42.000,5.000,0
"07/10/06","02:11:32","AMMA06",31028.000,"cc",28293.385,6.00,2829.339,1,6,0.100,17421.000,0.200,11740.000,0.300,1702.000,0.500,120.000,1.000,45.000,5.000,0
"07/10/06","02:11:38","AMMA06",30999.000,"cc",28345.479,6.00,2834.548,1,6,0.100,17390.000,0.200,11706.000,0.300,1729.000,0.500,119.000,1.000,55.000,5.000,0
"07/10/06","02:11:44","AMMA06",31154.000,"cc",28349.404,6.00,2834.941,1,6,0.100,17155.000,0.200,11998.000,0.300,1812.000,0.500,131.000,1.000,58.000,5.000,0
"07/10/06","02:11:50","AMMA06",31221.000,"cc",28299.859,6.00,2829.986,1,6,0.100,17232.000,0.200,11979.000,0.300,1850.000,0.500,111.000,1.000,49.000,5.000,0
"07/10/06","02:11:56","AMMA06",31285.000,"cc",28360.033,6.00,2836.003,1,6,0.100,17399.000,0.200,11974.000,0.300,1741.000,0.500,123.000,1.000,48.000,5.000,0
"07/10/06","02:12:02","AMMA06",31017.000,"cc",28337.754,6.00,2833.776,1,6,0.100,17168.000,0.200,11828.000,0.300,1854.000,0.500,126.000,1.000,41.000,5.000,0
"07/10/06","02:12:08","AMMA06",30966.000,"cc",28314.893,6.00,2831.490,1,6,0.100,17126.000,0.200,11833.000,0.300,1858.000,0.500,108.000,1.000,41.000,5.000,0
"07/10/06","02:12:14","AMMA06",32101.000,"cc",28296.277,6.00,2829.628,1,6,0.100,17546.000,0.200,12166.000,0.300,2046.000,0.500,237.000,1.000,106.000,5.000,0
"07/10/06","02:12:20","AMMA06",31391.000,"cc",28283.031,6.00,2828.303,1,6,0.100,17352.000,0.200,12014.000,0.300,1816.000,0.500,157.000,1.000,52.000,5.000,0
"07/10/06","02:12:26","AMMA06",31139.000,"cc",28290.020,6.00,2829.002,1,6,0.100,17045.000,0.200,12131.000,0.300,1794.000,0.500,115.000,1.000,54.000,5.000,0
"07/10/06","02:12:32","AMMA06",31311.000,"cc",28243.475,6.00,2824.348,1,6,0.100,17207.000,0.200,12056.000,0.300,1879.000,0.500,115.000,1.000,54.000,5.000,0
"07/10/06","02:12:38","AMMA06",31083.000,"cc",28413.094,6.00,2841.310,1,6,0.100,17017.000,0.200,12028.000,0.300,1854.000,0.500,139.000,1.000,45.000,5.000,0
"07/10/06","02:12:44","AMMA06",31234.000,"cc",28340.434,6.00,2834.044,1,6,0.100,17189.000,0.200,12020.000,0.300,1856.000,0.500,115.000,1.000,53.000,5.000,1.000
"07/10/06","02:12:50","AMMA06",31020.000,"cc",28355.830,6.00,2835.583,1,6,0.100,17086.000,0.200,11909.000,0.300,1860.000,0.500,115.000,1.000,50.000,5.000,0
"07/10/06","02:12:56","AMMA06",31517.000,"cc",28288.688,6.00,2828.869,1,6,0.100,17009.000,0.200,12351.000,0.300,1928.000,0.500,168.000,1.000,61.000,5.000,0
"07/10/06","02:13:02","AMMA06",31579.000,"cc",28275.410,6.00,2827.541,1,6,0.100,17173.000,0.200,12361.000,0.300,1855.000,0.500,129.000,1.000,61.000,5.000,0
"07/10/06","02:13:08","AMMA06",31025.000,"cc",28332.836,6.00,2833.284,1,6,0.100,16837.000,0.200,12032.000,0.300,1964.000,0.500,128.000,1.000,64.000,5.000,0
"07/10/06","02:13:14","AMMA06",31466.000,"cc",28310.303,6.00,2831.031,1,6,0.100,17070.000,0.200,12359.000,0.300,1865.000,0.500,112.000,1.000,60.000,5.000,0
"07/10/06","02:13:20","AMMA06",31227.000,"cc",28344.516,6.00,2834.452,1,6,0.100,16912.000,0.200,12232.000,0.300,1887.000,0.500,145.000,1.000,51.000,5.000,0
"07/10/06","02:13:26","AMMA06",31517.000,"cc",28291.611,6.00,2829.161,1,6,0.100,16890.000,0.200,12444.000,0.300,1998.000,0.500,137.000,1.000,48.000,5.000,0
"07/10/06","02:13:32","AMMA06",31526.000,"cc",28314.598,6.00,2831.460,1,6,0.100,17204.000,0.200,12162.000,0.300,1947.000,0.500,154.000,1.000,59.000,5.000,0
"07/10/06","02:13:38","AMMA06",31884.000,"cc",28326.121,6.00,2832.612,1,6,0.100,17379.000,0.200,12206.000,0.300,2005.000,0.500,203.000,1.000,91.000,5.000,0
"07/10/06","02:13:44","AMMA06",31660.000,"cc",28341.443,6.00,2834.145,1,6,0.100,17264.000,0.200,12244.000,0.300,1928.000,0.500,157.000,1.000,67.000,5.000,0
"07/10/06","02:13:50","AMMA06",31300.000,"cc",28292.244,6.00,2829.225,1,6,0.100,17057.000,0.200,12181.000,0.300,1867.000,0.500,139.000,1.000,56.000,5.000,0
"07/10/06","02:13:56","AMMA06",31396.000,"cc",28271.473,6.00,2827.148,1,6,0.100,17275.000,0.200,12041.000,0.300,1890.000,0.500,148.000,1.000,42.000,5.000,0
"07/10/06","02:14:02","AMMA06",31089.000,"cc",28318.525,6.00,2831.853,1,6,0.100,16896.000,0.200,12151.000,0.300,1872.000,0.500,123.000,1.000,47.000,5.000,0
"07/10/06","02:14:08","AMMA06",31227.000,"cc",28320.508,6.00,2832.051,1,6,0.100,17131.000,0.200,12006.000,0.300,1903.000,0.500,136.000,1.000,51.000,5.000,0
"07/10/06","02:14:14","AMMA06",31172.000,"cc",28326.459,6.00,2832.646,1,6,0.100,17265.000,0.200,11810.000,0.300,1885.000,0.500,154.000,1.000,58.000,5.000,0
"07/10/06","02:14:20","AMMA06",31216.000,"cc",28335.635,6.00,2833.564,1,6,0.100,17033.000,0.200,12063.000,0.300,1913.000,0.500,150.000,1.000,57.000,5.000,0